sat.trackr.live / text

‹ back to catalog

STARLINK-11357 [DTC]

NORAD 61541 · 2024-184K

PAYLOAD ACTIVE UNKNOWN

§ Identity

Operator
Country
US
Launch date
2024-10-15
Launch site
AFWTR
Launch vehicle
Mass (kg)
RCS (m²)

Purposes: comms

External: N2YO · Heavens-Above · Gunter

§ Orbital elements

Epoch: 2026-09-21T14:29:36.119328Z

Period
91.74 min
Inclination
53.1607°
Eccentricity
0.0001379
Mean motion
15.69704515 rev/d
Perigee alt
358.8 km
Apogee alt
360.7 km
Semi-major
6,737.9 km
B*
9.0236e-6
RAAN
350.7868°
Arg perigee
83.0774°
Mean anomaly
277.0400°
Rev number
11,118

§ Raw data

STARLINK-11357 [DTC]1 61541U 24184K   26264.60389027  .00000504  00000+0  90236-5 0  99942 61541  53.1607 350.7868 0001379  83.0774 277.0400 15.69704515111182

JSON: /api/v1/satellites/61541 · /tle

For live sub-satellite position, see the globe view (requires WebGL).

§ Visibility from observer

Set your observer location to see the next 7 days of passes ≥ 10°. The values pass through the URL so the page stays shareable.

No JS? Fill the form by hand. The geolocation button needs JavaScript.